Regional Weather Roundup
Issued by NWS

Home | Current Version | Previous Version | Graphics & Text | Print | Product List | Glossary Off
Versions: 1 2 3 4 5 6 7 8 9 10 11 12 13 14 15 16 17 18 19 20 21 22 23 24 25 26 27 28 29 30 31 32 33 34 35 36 37 38 39 40 41 42 43 44 45 46 47 48 49 50

000
ASUS43 KLSX 261707
RWRMO
STLRWRMO ALL

WEATHER SUMMARY FOR MISSOURI
NATIONAL WEATHER SERVICE SPRINGFIELD MO
1200 PM CDT WED APR 26 2017

NOTE: "FAIR" INDICATES FEW OR NO CLOUDS BELOW 12,000 FEET WITH NO
       SIGNIFICANT WEATHER AND/OR OBSTRUCTIONS TO VISIBILITY.
       CURRENT SKY AND/OR WEATHER CONDITIONS ARE NOT AVAILABLE FOR
       CHILLICOTHE AND FARMINGTON.

MOZ001>031-035>038-043-044-053-054-261800-
...NORTHERN AND WESTERN MISSOURI...

CITY           SKY/WX    TMP DP  RH WIND       PRES   REMARKS
KANSAS CTY INT CLOUDY    44  38  79 NW15G23   29.64R
KANSAS C DTWN  CLOUDY    46  39  76 NW10G18   29.64R
LEE`S SUMMIT   CLOUDY    44  41  89 NW13      29.65R
ST JOSEPH      CLOUDY    45  38  76 NW17      29.65F
CHILLICOTHE      N/A     46  41  82 NW9       29.64R
KIRKSVILLE     CLOUDY    47  43  86 NW10      29.60R

$$
MOZ066>068-077>081-088>096-101>105-261800-
...SOUTHWEST MISSOURI...

CITY           SKY/WX    TMP DP  RH WIND       PRES   REMARKS
SPRINGFIELD    LGT RAIN  50  49  96 NW9G17    29.58S
JOPLIN         LGT RAIN  47  46  97 N13       29.63R FOG
BRANSON        TSTM      55  55 100 SE14      29.54S

$$
MOZ032>034-039>042-045>050-055>058-069>072-261800-
...CENTRAL MISSOURI...

CITY           SKY/WX    TMP DP  RH WIND       PRES   REMARKS
COLUMBIA       LGT RAIN  51  51 100 NW12      29.59S FOG
JEFFERSON CITY LGT RAIN  53  50  89 NW8       29.57R FOG
ROLLA          HVY RAIN  58  58 100 SW10      29.58R FOG
SEDALIA        LGT RAIN  48  47  96 NW12      29.62S
WHITEMAN AFB   DRIZZLE   45  45 100 N12       29.61F FOG
OSAGE BEACH    TSTM      52  50  93 VRB7      29.58F

$$
MOZ051-052-059>065-261800-
...EAST CENTRAL MISSOURI...

CITY           SKY/WX    TMP DP  RH WIND       PRES   REMARKS
ST LOUIS INTL  LGT RAIN  67  57  70 SW9       29.59R
SPIRIT OF STL  TSTM      63  60  90 SW5       29.56S
ST CHARLES     CLOUDY    66  58  75 SW14      29.57R

$$
MOZ072>076-082>087-097>100-106>115-261800-
...SOUTH CENTRAL AND SOUTHEAST MISSOURI...

CITY           SKY/WX    TMP DP  RH WIND       PRES   REMARKS
CAPE GIRARDEAU CLOUDY    74  63  68 SW16G25   29.60R
FARMINGTON     CLOUDY    70  61  73 SW7       29.61R
POPLAR BLUFF   CLOUDY    72  65  78 S13       29.57F
WEST PLAINS    TSTM      58  56  93 S7        29.65R FOG

$$




USA.gov is the U.S. government's official web portal to all federal, state and local government web resources and services.